sat.trackr.live / text

‹ back to catalog

STARLINK-2224

NORAD 48573 · 2021-041W

PAYLOAD ACTIVE UNKNOWN

§ Identity

Operator
Country
US
Launch date
2021-05-15
Launch site
AFETR
Launch vehicle
Mass (kg)
RCS (m²)

Purposes: comms

External: N2YO · Heavens-Above · Gunter

§ Orbital elements

Epoch: 2026-05-25T06:00:02.000160Z

Period
94.01 min
Inclination
53.1590°
Eccentricity
0.0001512
Mean motion
15.31704128 rev/d
Perigee alt
469.7 km
Apogee alt
471.8 km
Semi-major
6,848.9 km
B*
2.1649e-4
RAAN
131.2819°
Arg perigee
82.8173°
Mean anomaly
178.6496°
Rev number
575

§ Raw data

STARLINK-22241 48573U 21041W   26145.25002315  .00006359  00000+0  21649-3 0  99982 48573  53.1590 131.2819 0001512  82.8173 178.6496 15.31704128  5755

JSON: /api/v1/satellites/48573 · /tle

For live sub-satellite position, see the globe view (requires WebGL).

§ Visibility from observer

Set your observer location to see the next 7 days of passes ≥ 10°. The values pass through the URL so the page stays shareable.

No JS? Fill the form by hand. The geolocation button needs JavaScript.